This is the latest recevied weather packets stored in our database for station/object N0FDH. If no packets are shown the sender has not sent any weather packets the latest 10 day(s).
| Time | Temp. | Humidity | Pressure | Rain* | Wind** | Luminosity | Snow |
|---|---|---|---|---|---|---|---|
| 1777416004 | 12.22° C | 42% | 1013.5 hPa | 0 mm | - | 103 W/m² | - |
| 1777415700 | 12.22° C | 43% | 1013.2 hPa | 0 mm | - | 137 W/m² | - |
| 1777415396 | 12.22° C | 42% | 1013.3 hPa | 0 mm | - | 108 W/m² | - |
| 1777415090 | 12.22° C | 40% | 1013.2 hPa | 0 mm | - | 162 W/m² | - |
| 1777414790 | 12.78° C | 42% | 1013.6 hPa | 0 mm | - | 187 W/m² | - |
| 1777414487 | 12.78° C | 40% | 1013.1 hPa | 0 mm | - | 196 W/m² | - |
| 1777414185 | 12.78° C | 40% | 1013.3 hPa | 0 mm | - | 273 W/m² | - |
| 1777413881 | 12.78° C | 42% | 1013.5 hPa | 0 mm | - | 281 W/m² | - |
| 1777413577 | 12.22° C | 44% | 1013.3 hPa | 0 mm | - | 251 W/m² | - |
| 1777413273 | 12.22° C | 44% | 1013.3 hPa | 0 mm | - | 349 W/m² | - |
| 1777412969 | 12.78° C | 44% | 1013.5 hPa | 0 mm | - | 231 W/m² | - |
| 1777412668 | 12.22° C | 44% | 1013.3 hPa | 0 mm | - | 442 W/m² | - |
| 1777412366 | 12.22° C | 44% | 1013.7 hPa | 0 mm | - | 236 W/m² | - |
| 1777412066 | 12.22° C | 43% | 1013.3 hPa | 0 mm | - | 173 W/m² | - |
| 1777411761 | 12.22° C | 43% | 1013.7 hPa | 0 mm | - | 195 W/m² | - |
| 1777411450 | 12.78° C | 41% | 1013.7 hPa | 0 mm | - | 330 W/m² | - |
| 1777411150 | 12.78° C | 45% | 1013.6 hPa | 0 mm | - | 440 W/m² | - |
| 1777410844 | 12.78° C | 42% | 1013.6 hPa | 0 mm | - | 430 W/m² | - |
| 1777410544 | 12.78° C | 41% | 1013.7 hPa | 0 mm | - | 457 W/m² | - |
| 1777410243 | 12.22° C | 47% | 1013.6 hPa | 0 mm | - | 376 W/m² | - |
| 1777409938 | 12.22° C | 44% | 1013.5 hPa | 0 mm | - | 418 W/m² | - |
| 1777409633 | 12.78° C | 44% | 1013.6 hPa | 0 mm | - | 265 W/m² | - |
| 1777409329 | 12.22° C | 45% | 1013.7 hPa | 0 mm | - | 446 W/m² | - |
| 1777409025 | 12.22° C | 45% | 1013.7 hPa | 0 mm | - | 490 W/m² | - |
| 1777408722 | 13.33° C | 44% | 1013.7 hPa | 0 mm | - | 510 W/m² | - |
* Rain latest hour (hover to see other rain measurements)
** Current wind speed in m/s (hover to see current wind gust speed)